Location: Unspecified
(48.8656°N, 0.0000°E)
Time: 11:15:28
(UTC+00:00)

Transit 2A Rocket - Pass Details

Date: 24 June 2019
Orbit: 593 x 910 km, 66.7° (Epoch: 15 October)

Event Time Altitude Azimuth Distance (km) Brightness Sun altitude
Rises 12:31:11 0° 275° (W) 3,517 8.5 63.9°
Reaches altitude 10° 12:34:37 10° 294° (WNW) 2,548 7.8 63.8°
Maximum altitude 12:38:33 18° 336° (NNW) 1,994 7.2 63.6°
Drops below altitude 10° 12:42:21 10° 18° (NNE) 2,441 7.5 63.4°
Sets 12:45:34 0° 38° (NE) 3,313 8.0 63.2°
